Aérodrome :
LOGIN :

S'inscrire | Disclaimer

   EN    FR    IT 

 










Légende :    VFR   VFR Marginal   IFR   IFR Intensif   IFR Très Intensif
Visi : 
Plafond : 
>= 8 km
>= 3000ft
5 à 8 km
1000 à 3000 ft
1500m à 5 km
500 à 1000 ft
800 à 1500m
200 à 500 ft
< 800m
< 200 ft
Symboles :   Orages  Brouillard  Fortes neiges  Fortes précipitations  Vent > 20 kt
SIGMETs :   Divers  Orages  Givrage  Turbulence  Onde Orograph.  Cendres Volcan.







- Altitude de l'aérodrome : 42 ft
- Code IATA : LMO


EGQS - Lossiemouth

DERNIER METAR :
  • 190850Z 23010KT 9999 FEW025 05/03 Q1008 BLU NOSIG

METARs EXPIRÉS :
  • 190750Z 25009KT 9999 SCT025 SCT200 04/03 Q1007 BLU TEMPO SCT024 WHT
  • 190650Z 25010KT 9999 -SHRA FEW014 SCT024 BKN040 05/03 Q1006 WHT TEMPO FEW024 BLU

TAF TAF EGQS
Valide du 19 à 09h jusqu'au 20 à 03h UTC


190739Z 1909/2003 25010KT 9999 FEW025 SCT045
PROB30
TEMPO 1909/1910 7000 -SHRA SCT018
PROB40
TEMPO 1922/2003 5000 RA
Pas de NOTAMs connus pour ce terrain.



MET'MAP, la Météo Aéronautique d'un coup d'oeil ! - Copyright ORBIFLY Décembre 2007 - Disclaimer

ORBIFLY MET'MAP TEAM :

Programmation & Développement : Alexandra Zaïnal
Conception & Développement : Baudouin d'Aumeries
Co-Programmation & Développement : Marc-Olivier Méhu
Soutien technique & logistique : Manuel Goepfert

Contact : metmap@orbifly.com




SOURCES & CREDITS :

   NOAA